Hourly Weather Roundup
Issued by NWS Central Illinois

Home | Current Version | Previous Version | Text Only | Print | Product List | Glossary On
Versions: 1 2 3 4 5 6 7 8 9 10 11 12 13 14 15 16 17 18 19 20 21 22 23 24 25 26 27 28 29 30 31 32 33 34 35 36 37 38 39 40 41 42 43 44 45 46 47 48 49 50
000
NZUS43 KILX 301110
HWRILX

AREA WEATHER ROUNDUP
NATIONAL WEATHER SERVICE, LINCOLN IL
600 AM CDT SAT MAY 30 2015


CITY           SKY/WX    TMP DP  RH WIND       PRES   REMARKS
BLOOMINGTON    LGT RAIN  66  65  97 CALM      29.99S
CHAMPAIGN      RAIN      68  66  93 CALM      29.99S FOG
DANVILLE       CLOUDY    68  64  89 S3        29.98R
DECATUR        CLOUDY    67  65  93 E8        29.97S
EFFINGHAM      MOCLDY    68  65  89 SE7       29.98S
FLORA          PTCLDY    68  66  96 SE5       29.97S
GALESBURG      RAIN      64  63  97 S3        29.97R
JACKSONVILLE   CLOUDY    67  66  95 SE3       29.97R
LACON          LGT RAIN  65  64  94 CALM      29.96R
LAWRENCEVILLE  PTCLDY    70  67  90 S8        29.99S
LITCHFIELD     RAIN      66  64  94 CALM      29.98R
$$


CITY           SKY/WX    TMP DP  RH WIND       PRES   REMARKS
LINCOLN        LGT RAIN  66  65  94 CALM      29.94F
MACOMB         LGT RAIN  64  64  99 CALM      29.99S
MATTOON        MOCLDY    66  65  96 CALM      29.97S
MT CARMEL AP   MOCLDY    73  66  78 SE8       29.99S
OLNEY-NOBLE AP PTCLDY    68  66  94 SE6       29.98S
PARIS          CLOUDY    68  65  91 E3        30.00S
PEORIA         CLOUDY    68  64  87 CALM      29.97R
PONTIAC        RAIN      68  66  94 CALM      29.98S
RANTOUL        RAIN      69  67  95 CALM      30.00R
ROBINSON       MOCLDY    69  66  92 S5        30.00S
SPRINGFIELD    CLOUDY    67  65  93 NE3       29.96S
TAYLORVILLE    HVY RAIN  64  64 100 NE3       29.97R
$$

...REGIONAL REPORTS...


CITY           SKY/WX    TMP DP  RH WIND       PRES   REMARKS
CHICAGO O`HARE LGT RAIN  68  65  90 SW5       29.96R
KANKAKEE       CLOUDY    67  66  96 SW3       29.99R
MOLINE         LGT RAIN  66  62  87 SW6       29.95R
MOUNT VERNON   CLOUDY    70  64  83 S3        29.97S
PITTSFIELD     CLOUDY    66  64  93 CALM      29.96F
QUINCY         LGT RAIN  65  64  97 CALM      29.96S
ROCKFORD       LGT RAIN  66  63  90 SW3       29.96R
$$


CITY           SKY/WX    TMP DP  RH WIND       PRES   REMARKS
BURLINGTON     LGT RAIN  65  65 100 S6        29.96R
CEDAR RAPIDS   CLOUDY    64  64 100 NW8       29.94R
DES MOINES     DRIZZLE   57  53  86 N12       30.03R FOG
KIRKSVILLE     CLOUDY    65  64  97 CALM      29.97S
OTTUMWA        CLOUDY    60  60 100 NW9       29.97R
ST LOUIS       CLOUDY    69  66  90 CALM      29.95S
$$


CITY           SKY/WX    TMP DP  RH WIND       PRES   REMARKS
TERRE HAUTE    PTCLDY    66  65  96 CALM      30.00S
EVANSVILLE     PTCLDY    70  66  87 SE6       30.01S
INDIANAPOLIS   PTCLDY    68  65  90 SE6       30.01R
LAFAYETTE      CLOUDY    68  64  87 S5        30.00R
MADISON        CLOUDY    67  63  87 SW3       29.93R
MILWAUKEE      LGT RAIN  64  61  90 NE6       29.96R FOG
$$




USA.gov is the U.S. government's official web portal to all federal, state and local government web resources and services.